CW7533 Weather Reports


time (UTC)temp
C
wind
direction
speed
KPH
gust
KPH
rain 1hr
cm
rain 24hr
cm
rain mn
cm
humidity
%
barometer
mb
20260510143539 16 248 11.3 32.2 0.00 0.05 0.05 65 1005.0
20260510142519 16 270 11.3 35.4 0.00 0.05 0.05 65 1005.0
20260510141519 15 293 8.0 22.5 0.00 0.05 0.05 69 1005.0
20260510140519 15 315 11.3 33.8 0.00 0.05 0.05 71 1004.7
20260510135519 15 270 8.0 22.5 0.00 0.05 0.05 70 1004.7
20260510134539 15 248 11.3 25.7 0.00 0.05 0.05 70 1004.7
20260510133519 15 270 9.7 22.5 0.00 0.05 0.05 72 1004.6
20260510132539 15 270 9.7 37.0 0.00 0.05 0.05 72 1004.5
20260510131519 14 270 11.3 33.8 0.00 0.05 0.05 75 1004.5
20260510130519 13 248 9.7 25.7 0.00 0.05 0.05 77 1004.1
20260510125519 13 270 6.4 25.7 0.00 0.05 0.05 78 1004.0
20260510124518 13 248 8.0 20.9 0.00 0.05 0.05 79 1004.0
20260510123519 12 293 8.0 19.3 0.00 0.05 0.05 81 1004.0
20260510122519 12 248 11.3 35.4 0.00 0.05 0.05 82 1003.8
20260510121519 11 293 9.7 25.7 0.00 0.05 0.05 84 1003.8
20260510120519 11 248 8.0 25.7 0.00 0.05 0.05 86 1003.5
20260510115519 11 248 8.0 22.5 0.00 0.05 0.05 87 1003.5
20260510114519 11 248 6.4 22.5 0.00 0.05 0.05 88 1003.5
20260510113520 11 270 11.3 33.8 0.00 0.05 0.05 89 1003.3
20260510112519 11 248 8.0 19.3 0.00 0.05 0.05 92 1003.0
20260510111521 11 248 4.8 17.7 0.00 0.05 0.05 94 1003.0
20260510110520 11 248 4.8 22.5 0.00 0.05 0.05 96 1002.8
20260510105520 11 248 4.8 14.5 0.00 0.05 0.05 97 1002.1
20260510104520 11 248 1.6 11.3 0.00 0.05 0.05 98 1002.1
20260510103521 11 270 1.6 14.5 0.00 0.05 0.05 98 1002.3
20260510102520 11 270 4.8 19.3 0.00 0.05 0.05 98 1002.4
20260510101521 11 270 4.8 24.1 0.00 0.05 0.05 99 1002.4
20260510100520 11 248 4.8 17.7 0.00 0.05 0.05 99 1002.1
20260510095601 10 248 3.2 19.3 0.00 0.05 0.05 100 1001.9
20260510094520 10 270 1.6 14.5 0.00 0.05 0.05 100 1001.9
20260510093520 10 248 1.6 12.9 0.00 0.05 0.05 100 1001.8
20260510092542 10 248 1.6 17.7 0.00 0.05 0.05 100 1001.5
20260510091540 10 0.0 4.8 0.00 0.05 0.05 100 1001.5
20260510090542 10 0.0 11.3 0.00 0.05 0.05 100 1001.4
20260510085520 10 0.0 1.6 0.00 0.05 0.05 100 1001.3
20260510084521 10 0.0 3.2 0.00 0.05 0.05 100 1001.3
20260510083540 10 0.0 3.2 0.00 0.05 0.05 100 1001.3
20260510082520 10 0.0 1.6 0.00 0.05 0.05 100 1001.3
20260510081520 10 0.0 6.4 0.00 0.05 0.05 100 1001.3
20260510080520 10 0.0 0.0 0.00 0.05 0.05 100 1001.3
20260510075520 10 0.0 0.0 0.00 0.05 0.05 99 1000.9
20260510074520 10 0.0 3.2 0.00 0.05 0.05 100 1000.9
20260510073521 10 0.0 9.7 0.00 0.05 0.05 100 1000.9
20260510072520 10 0.0 0.0 0.00 0.05 0.05 100 1000.9
20260510071520 10 0.0 0.0 0.00 0.05 0.05 100 1000.9
20260510070520 10 0.0 0.0 0.00 0.05 0.05 99 1000.9
20260510065520 10 0.0 6.4 0.03 0.05 0.05 99 1000.9
20260510064521 10 0.0 4.8 0.05 0.05 0.05 99 1000.9
20260510063540 10 0.0 9.7 0.05 0.05 0.05 99 1000.4
20260510062519 10 0.0 8.0 0.05 0.05 0.05 99 1000.6
20260510061520 10 0.0 0.0 0.05 0.05 0.05 98 1000.6
20260510060520 11 0.0 11.3 0.05 0.05 0.05 98 1000.7
20260510055520 11 0.0 3.2 0.03 0.03 0.03 97 1001.0
20260510054520 11 0.0 4.8 0.00 0.00 0.00 97 1001.0
20260510053519 11 0.0 6.4 0.00 0.00 0.00 96 1001.1
20260510052519 11 248 1.6 9.7 0.00 0.00 0.00 95 1001.1
20260510051520 11 270 1.6 14.5 0.00 0.00 0.00 94 1001.1
20260510050539 11 270 3.2 29.0 0.00 0.00 0.00 93 1000.9
20260510045519 11 0.0 8.0 0.00 0.00 0.00 92 1000.9
20260510044519 11 225 1.6 16.1 0.00 0.00 0.00 92 1000.9
20260510043519 11 248 1.6 11.3 0.00 0.00 0.00 92 1000.7
20260510042519 11 180 3.2 19.3 0.00 0.00 0.00 92 1000.6
20260510041519 11 203 1.6 9.7 0.00 0.00 0.00 92 1000.6
20260510040519 11 158 3.2 14.5 0.00 0.00 0.00 92 1000.6
20260510035519 11 158 3.2 16.1 0.00 0.00 0.00 92 1000.7
20260510034519 11 180 3.2 11.3 0.00 0.00 0.00 92 1000.7
20260510033619 11 180 3.2 19.3 0.00 0.00 0.00 92 1000.9
20260510032541 11 203 1.6 14.5 0.00 0.00 0.00 92 1000.9
20260510031539 11 158 3.2 12.9 0.00 0.00 0.00 92 1000.9
20260510030519 11 203 3.2 19.3 0.00 0.00 0.00 92 1001.3
20260510025519 11 135 3.2 14.5 0.00 0.00 0.00 92 1001.5
20260510024519 11 180 3.2 11.3 0.00 0.00 0.00 92 1001.5
20260510023519 11 135 3.2 16.1 0.00 0.00 0.00 91 1001.5
20260510022520 11 158 1.6 16.1 0.00 0.00 0.00 91 1001.9
20260510021519 11 158 1.6 11.3 0.00 0.00 0.00 91 1001.9
20260510020519 11 158 3.2 16.1 0.00 0.00 0.00 90 1001.9
20260510015519 11 158 3.2 16.1 0.00 0.00 0.00 89 1002.0
20260510014519 11 158 3.2 16.1 0.00 0.00 0.00 88 1002.0
20260510013519 11 180 3.2 16.1 0.00 0.00 0.00 87 1002.0
20260510012519 11 180 1.6 9.7 0.00 0.00 0.00 86 1001.9
20260510011519 12 158 4.8 16.1 0.00 0.00 0.00 85 1001.9
20260510010519 12 158 4.8 17.7 0.00 0.00 0.00 84 1001.9
20260510005539 12 158 6.4 24.1 0.00 0.00 0.00 84 1001.9
20260510004519 12 180 1.6 12.9 0.00 0.00 0.00 83 1001.9
20260510003519 12 203 3.2 11.3 0.00 0.00 0.00 83 1001.9
20260510002519 12 158 3.2 12.9 0.00 0.00 0.00 82 1001.9
20260510001519 12 180 6.4 20.9 0.00 0.00 0.00 81 1001.9
20260510000519 12 203 3.2 8.0 0.00 0.00 0.00 81 1001.9
20260509235519 13 158 4.8 24.1 0.00 0.00 0.00 80 1001.9
20260509234520 13 158 6.4 17.7 0.00 0.00 0.00 78 1001.9
20260509233538 13 180 3.2 16.1 0.00 0.00 0.00 77 1001.8
20260509232518 13 158 3.2 11.3 0.00 0.00 0.00 76 1001.9
20260509231540 13 203 4.8 32.2 0.00 0.00 0.00 75 1001.9
20260509230518 14 180 4.8 16.1 0.00 0.00 0.00 74 1001.9
20260509225520 14 248 4.8 12.9 0.00 0.00 0.00 74 1002.0
20260509224520 15 180 4.8 22.5 0.00 0.00 0.00 73 1002.0
20260509223519 15 158 6.4 24.1 0.00 0.00 0.00 72 1002.2
20260509222519 15 225 4.8 19.3 0.00 0.00 0.00 71 1002.2
20260509221540 15 158 11.3 24.1 0.00 0.00 0.00 69 1002.2
20260509220519 16 158 6.4 29.0 0.00 0.00 0.00 67 1001.9
20260509215540 16 158 6.4 22.5 0.00 0.00 0.00 66 1001.9
20260509214539 16 225 6.4 19.3 0.00 0.00 0.00 64 1001.9
20260509213539 17 180 3.2 9.7 0.00 0.00 0.00 64 1002.0
20260509212519 17 158 4.8 12.9 0.00 0.00 0.00 62 1002.2
20260509211520 17 225 4.8 11.3 0.00 0.00 0.00 61 1002.2
20260509210619 17 225 4.8 12.9 0.00 0.00 0.00 59 1002.3
20260509205519 18 225 3.2 12.9 0.00 0.00 0.00 59 1002.2
20260509204519 18 180 3.2 12.9 0.00 0.00 0.00 56 1002.2
20260509203519 18 180 3.2 14.5 0.00 0.00 0.00 54 1002.3
20260509202519 18 203 4.8 19.3 0.00 0.00 0.00 51 1002.5
20260509201519 18 203 3.2 19.3 0.00 0.00 0.00 50 1002.5
20260509200519 19 180 3.2 14.5 0.00 0.00 0.00 48 1002.5
20260509195519 19 225 4.8 16.1 0.00 0.00 0.00 47 1002.5
20260509194520 19 158 6.4 14.5 0.00 0.00 0.00 45 1002.5
20260509193619 19 180 4.8 19.3 0.00 0.00 0.00 43 1002.5
20260509192519 20 248 6.4 22.5 0.00 0.00 0.00 43 1002.9
20260509191520 20 225 6.4 19.3 0.00 0.00 0.00 43 1002.9
20260509190519 20 158 8.0 25.7 0.00 0.00 0.00 43 1003.0
20260509185518 20 158 4.8 16.1 0.00 0.00 0.00 41 1003.0
20260509184519 19 248 4.8 30.6 0.00 0.00 0.00 41 1003.0
20260509183519 20 158 8.0 24.1 0.00 0.00 0.00 41 1003.1
20260509182520 20 248 8.0 38.6 0.00 0.00 0.00 41 1003.5
20260509181518 20 248 8.0 24.1 0.00 0.00 0.00 42 1003.5
20260509180519 19 158 4.8 22.5 0.00 0.00 0.00 43 1003.5
20260509175519 19 203 3.2 14.5 0.00 0.00 0.00 43 1004.0
20260509174520 19 225 3.2 11.3 0.00 0.00 0.00 43 1004.0
20260509173538 18 248 6.4 20.9 0.00 0.00 0.00 44 1004.1
20260509172518 19 158 11.3 30.6 0.00 0.00 0.00 42 1004.4
20260509171519 19 248 3.2 17.7 0.00 0.00 0.00 44 1004.4
20260509170519 19 158 8.0 22.5 0.00 0.00 0.00 43 1004.6
20260509165518 19 225 6.4 24.1 0.00 0.00 0.00 45 1004.8
20260509164520 19 203 6.4 24.1 0.00 0.00 0.00 45 1004.8
20260509163559 18 225 6.4 20.9 0.00 0.00 0.00 46 1005.0
20260509162518 18 158 8.0 27.4 0.00 0.00 0.00 44 1005.3
20260509161521 18 225 3.2 37.0 0.00 0.00 0.00 46 1005.3
20260509160520 18 158 3.2 14.5 0.00 0.00 0.00 47 1005.5
20260509155540 18 225 1.6 11.3 0.00 0.00 0.00 48 1005.9
20260509154520 18 158 4.8 30.6 0.00 0.00 0.00 47 1005.9
20260509153520 18 158 4.8 27.4 0.00 0.00 0.00 48 1006.1
20260509152520 17 248 4.8 16.1 0.00 0.00 0.00 48 1006.1
20260509151520 17 248 8.0 29.0 0.00 0.00 0.00 49 1006.1
20260509150520 17 248 4.8 20.9 0.00 0.00 0.00 52 1006.2
20260509145520 17 203 1.6 19.3 0.00 0.00 0.00 52 1006.3
20260509144520 17 225 1.6 6.4 0.00 0.00 0.00 53 1006.3